Tracking 19562 objects as of 22-Mar-2019
HD Live streaming from Space Station
objects crossing your sky now

NAVSTAR 28 (USA 85)

Track NAVSTAR 28 (USA 85) now!
NAVSTAR 28 (USA 85) is classified as:


NORAD ID: 22231
Int'l Code: 1992-079A
Perigee: 21,162.5 km
Apogee: 21,340.5 km
Inclination: 55.2 °
Period: 761.5 minutes
Semi major axis: 27622 km
RCS: 3.981 m2 (large)
Launch date: November 22, 1992
Source: United States (US)
Launch site: AIR FORCE EASTERN TEST RANGE (AFETR)
aabbcc
Your satellite tracking list
Your tracking list is empty




NASA's NSSDC Master Catalog

Two Line Element Set (TLE):
1 22231U 92079A   19079.53126471 -.00000014 +00000-0 +00000-0 0  9998
2 22231 055.1893 204.8091 0032218 310.0388 049.6365 01.89107339012115
Source of the keplerian elements: AFSPC